Regional Weather Roundup
Issued by NWS Binghamton, NY

Home | Current Version | Previous Version | Text Only | Print | Product List | Glossary On
Versions: 1 2 3 4 5 6 7 8 9 10 11 12 13 14 15 16 17 18 19 20 21 22 23 24 25 26 27 28 29 30 31 32 33 34 35 36 37 38 39 40 41 42 43 44 45 46 47 48 49 50
000
ASUS41 KBGM 162010
RWRBGM
RWRBGM
BINGHAMTON REGIONAL WEATHER ROUNDUP
NATIONAL WEATHER SERVICE BINGHAMTON NY
400 PM EDT TUE SEP 16 2014

Note: "fair" indicates few or no clouds below 12,000 feet with no
significant weather and/or obstructions to visibility.

* = Station(s) that does not report precipitation, such as rain,
snow, etc, also no thunder or fog.

!NYZ009-015>018-022>025-036-037-044>046-055>057-062-162100
...CENTRAL NEW YORK...

CITY           SKY/WX    TMP DP  RH WIND       PRES   REMARKS
BINGHAMTON     PTSUNNY   60  46  59 W8        30.02F
CORTLAND       FAIR      63  46  55 NW3       30.04S
DANSVILLE      PTSUNNY   66  46  48 NW6       30.04F
ELMIRA         PTSUNNY   66  49  54 NW7       30.02F
ITHACA         PTSUNNY   64  49  58 NW12G17   30.04F
HAMILTON       MOCLDY    61  45  55 NW7       30.02S
MONTICELLO     CLOUDY    61  50  67 NW9       30.02S
NORWICH        MOSUNNY   63  46  55 CALM      30.02S
PENN YAN       PTSUNNY   64  46  52 NW8       30.04S
ROME           MOSUNNY   62  46  55 NW12      30.01R
SIDNEY         CLOUDY    61  52  72 NW3       30.02S
SYRACUSE       PTSUNNY   67  44  43 W10       30.02R
$$

!PAZ038>040-043-044-047-048-072-162100
...NORTHEAST PENNSYLVANIA...

CITY           SKY/WX    TMP DP  RH WIND       PRES   REMARKS
HAZLETON       CLOUDY    61  48  63 NW8       30.06R
SCRANTON       CLOUDY    63  47  55 N6        30.02S
TOWANDA*       MOSUNNY   64  48  55 CALM      30.03F
$$
&&
KEY
WCI = WIND CHILL INDEX
VSB = VISIBILITY
HX  = HEAT INDEX
$$


USA.gov is the U.S. government's official web portal to all federal, state and local government web resources and services.